| time (UTC) | temp C | wind direction | speed KPH | gust KPH | rain 1hr cm | rain 24hr cm | rain mn cm | humidity % | barometer mb |
| 20260905170916 | 28 | 54 | 1.6 | 11.3 | 0.00 | 0.00 | 0.00 | 30 | 1017.6 |
| 20260905170016 | 28 | 56 | 0.0 | 6.4 | 0.00 | 0.00 | 0.00 | 30 | 1017.6 |
| 20260905165416 | 28 | 56 | 0.0 | 4.8 | 0.00 | 0.00 | 0.00 | 30 | 1017.6 |
| 20260905164516 | 27 | 56 | 1.6 | 8.0 | 0.00 | 0.00 | 0.00 | 32 | 1017.6 |
| 20260905163616 | 26 | 57 | 1.6 | 9.7 | 0.00 | 0.00 | 0.00 | 35 | 1017.6 |
| 20260905162737 | 26 | 57 | 1.6 | 9.7 | 0.00 | 0.00 | 0.00 | 34 | 1017.6 |
| 20260905161837 | 25 | 0 | 0.0 | 0.0 | 0.00 | 0.00 | 0.00 | 33 | 1017.6 |
| 20260905160916 | 25 | 58 | 0.0 | 4.8 | 0.00 | 0.00 | 0.00 | 33 | 1017.6 |
| 20260905160016 | 25 | 0 | 0.0 | 0.0 | 0.00 | 0.00 | 0.00 | 34 | 1017.6 |
| 20260905155416 | 25 | 0 | 0.0 | 0.0 | 0.00 | 0.00 | 0.00 | 34 | 1017.6 |
| 20260905154516 | 23 | 0 | 0.0 | 0.0 | 0.00 | 0.00 | 0.00 | 39 | 1017.6 |
| 20260905153616 | 22 | 68 | 0.0 | 8.0 | 0.00 | 0.00 | 0.00 | 42 | 1017.6 |
| 20260905152716 | 21 | 68 | 1.6 | 8.0 | 0.00 | 0.00 | 0.00 | 44 | 1017.6 |
| 20260905151816 | 21 | 68 | 0.0 | 4.8 | 0.00 | 0.00 | 0.00 | 41 | 1017.6 |
| 20260905150916 | 21 | 48 | 0.0 | 3.2 | 0.00 | 0.00 | 0.00 | 40 | 1017.6 |
| 20260905150016 | 21 | 40 | 1.6 | 8.0 | 0.00 | 0.00 | 0.00 | 41 | 1017.6 |
| 20260905145416 | 21 | 253 | 0.0 | 3.2 | 0.00 | 0.00 | 0.00 | 41 | 1017.6 |
| 20260905144516 | 21 | 249 | 0.0 | 4.8 | 0.00 | 0.00 | 0.00 | 40 | 1017.6 |
| 20260905143616 | 20 | 0 | 0.0 | 0.0 | 0.00 | 0.00 | 0.00 | 40 | 1017.6 |
| 20260905142716 | 20 | 0 | 0.0 | 0.0 | 0.00 | 0.00 | 0.00 | 43 | 1017.6 |
| 20260905141837 | 19 | 271 | 0.0 | 6.4 | 0.00 | 0.00 | 0.00 | 44 | 1017.6 |
| 20260905140916 | 18 | 271 | 1.6 | 6.4 | 0.00 | 0.00 | 0.00 | 44 | 1017.6 |
| 20260905140037 | 18 | 0 | 0.0 | 1.6 | 0.00 | 0.00 | 0.00 | 44 | 1017.6 |
| 20260905135416 | 18 | 0 | 0.0 | 0.0 | 0.00 | 0.00 | 0.00 | 45 | 1017.6 |
| 20260905134516 | 18 | 271 | 0.0 | 4.8 | 0.00 | 0.00 | 0.00 | 44 | 1017.6 |
| 20260905133616 | 18 | 271 | 0.0 | 4.8 | 0.00 | 0.00 | 0.00 | 44 | 1017.6 |
| 20260905132716 | 18 | 0 | 0.0 | 0.0 | 0.00 | 0.00 | 0.00 | 45 | 1017.6 |
| 20260905131837 | 18 | 0 | 0.0 | 0.0 | 0.00 | 0.00 | 0.00 | 46 | 1017.6 |
| 20260905130916 | 18 | 236 | 0.0 | 4.8 | 0.00 | 0.00 | 0.00 | 45 | 1017.6 |
| 20260905130016 | 17 | 99 | 0.0 | 4.8 | 0.00 | 0.00 | 0.00 | 47 | 1017.6 |
| 20260905125416 | 17 | 84 | 0.0 | 1.6 | 0.00 | 0.00 | 0.00 | 48 | 1017.6 |
| 20260905124516 | 17 | 0 | 0.0 | 0.0 | 0.00 | 0.00 | 0.00 | 48 | 1017.6 |
| 20260905123616 | 16 | 0 | 0.0 | 0.0 | 0.00 | 0.00 | 0.00 | 50 | 1017.6 |
| 20260905122737 | 17 | 84 | 0.0 | 1.6 | 0.00 | 0.00 | 0.00 | 49 | 1017.6 |
| 20260905121816 | 17 | 84 | 0.0 | 3.2 | 0.00 | 0.00 | 0.00 | 48 | 1017.6 |
| 20260905120917 | 17 | 84 | 0.0 | 1.6 | 0.00 | 0.00 | 0.00 | 46 | 1017.6 |
| 20260905005411 | 30 | 205 | 6.4 | 17.7 | 0.00 | 0.00 | 0.00 | 20 | 1016.5 |
| 20260905004511 | 30 | 205 | 4.8 | 19.3 | 0.00 | 0.00 | 0.00 | 19 | 1016.5 |
| 20260905003611 | 30 | 220 | 3.2 | 14.5 | 0.00 | 0.00 | 0.00 | 19 | 1016.5 |
| 20260905002711 | 31 | 206 | 3.2 | 12.9 | 0.00 | 0.00 | 0.00 | 19 | 1016.5 |
| 20260905001811 | 31 | 213 | 4.8 | 19.3 | 0.00 | 0.00 | 0.00 | 19 | 1016.5 |
| 20260905000911 | 32 | 273 | 0.0 | 3.2 | 0.00 | 0.00 | 0.00 | 19 | 1016.5 |
| 20260905000011 | 32 | 239 | 0.0 | 8.0 | 0.00 | 0.00 | 0.00 | 18 | 1016.5 |
| 20260904235411 | 32 | 248 | 1.6 | 14.5 | 0.00 | 0.00 | 0.00 | 18 | 1016.5 |
| 20260904234511 | 32 | 203 | 3.2 | 19.3 | 0.00 | 0.00 | 0.00 | 19 | 1016.5 |
| 20260904233611 | 32 | 211 | 1.6 | 19.3 | 0.00 | 0.00 | 0.00 | 18 | 1016.5 |
| 20260904232711 | 32 | 157 | 3.2 | 24.1 | 0.00 | 0.00 | 0.00 | 19 | 1016.5 |
| 20260904231811 | 31 | 179 | 4.8 | 17.7 | 0.00 | 0.00 | 0.00 | 20 | 1016.5 |
| 20260904230911 | 31 | 193 | 6.4 | 17.7 | 0.00 | 0.00 | 0.00 | 20 | 1016.5 |
| 20260904230011 | 32 | 185 | 4.8 | 16.1 | 0.00 | 0.00 | 0.00 | 20 | 1016.5 |
| 20260904225411 | 32 | 178 | 3.2 | 16.1 | 0.00 | 0.00 | 0.00 | 20 | 1016.5 |
| 20260904224511 | 32 | 175 | 6.4 | 19.3 | 0.00 | 0.00 | 0.00 | 20 | 1016.5 |
| 20260904223611 | 31 | 151 | 4.8 | 19.3 | 0.00 | 0.00 | 0.00 | 20 | 1016.5 |
| 20260904222711 | 31 | 107 | 3.2 | 14.5 | 0.00 | 0.00 | 0.00 | 22 | 1016.5 |
| 20260904221811 | 31 | 181 | 4.8 | 16.1 | 0.00 | 0.00 | 0.00 | 20 | 1016.5 |
| 20260904220911 | 31 | 184 | 0.0 | 8.0 | 0.00 | 0.00 | 0.00 | 24 | 1016.5 |
| 20260904220011 | 31 | 58 | 1.6 | 9.7 | 0.00 | 0.00 | 0.00 | 26 | 1016.5 |
| 20260904215411 | 31 | 60 | 3.2 | 9.7 | 0.00 | 0.00 | 0.00 | 27 | 1016.5 |
| 20260904214511 | 30 | 61 | 1.6 | 9.7 | 0.00 | 0.00 | 0.00 | 27 | 1016.5 |
| 20260904213632 | 30 | 0 | 0.0 | 0.0 | 0.00 | 0.00 | 0.00 | 28 | 1016.5 |
| 20260904212711 | 30 | 0 | 0.0 | 1.6 | 0.00 | 0.00 | 0.00 | 28 | 1016.5 |
| 20260904211811 | 30 | 0 | 0.0 | 0.0 | 0.00 | 0.00 | 0.00 | 28 | 1016.5 |
| 20260904210911 | 29 | 61 | 0.0 | 6.4 | 0.00 | 0.00 | 0.00 | 30 | 1016.5 |
| 20260904210011 | 29 | 61 | 1.6 | 8.0 | 0.00 | 0.00 | 0.00 | 29 | 1016.5 |
| 20260904205411 | 30 | 61 | 0.0 | 6.4 | 0.00 | 0.00 | 0.00 | 29 | 1016.5 |
| 20260904204532 | 30 | 56 | 1.6 | 12.9 | 0.00 | 0.00 | 0.00 | 29 | 1016.5 |
| 20260904203632 | 30 | 27 | 1.6 | 6.4 | 0.00 | 0.00 | 0.00 | 29 | 1016.5 |
| 20260904202711 | 30 | 24 | 1.6 | 12.9 | 0.00 | 0.00 | 0.00 | 28 | 1016.5 |
| 20260904201811 | 30 | 27 | 1.6 | 9.7 | 0.00 | 0.00 | 0.00 | 27 | 1016.5 |
| 20260904200932 | 30 | 26 | 1.6 | 9.7 | 0.00 | 0.00 | 0.00 | 29 | 1016.5 |
| 20260904200032 | 29 | 26 | 1.6 | 9.7 | 0.00 | 0.00 | 0.00 | 30 | 1016.5 |
| 20260904195411 | 29 | 28 | 3.2 | 12.9 | 0.00 | 0.00 | 0.00 | 28 | 1016.5 |
| 20260904194532 | 29 | 46 | 3.2 | 12.9 | 0.00 | 0.00 | 0.00 | 29 | 1016.5 |
| 20260904193632 | 29 | 24 | 1.6 | 8.0 | 0.00 | 0.00 | 0.00 | 29 | 1016.5 |
| 20260904192711 | 28 | 319 | 4.8 | 16.1 | 0.00 | 0.00 | 0.00 | 28 | 1016.5 |
| 20260904191811 | 28 | 307 | 3.2 | 16.1 | 0.00 | 0.00 | 0.00 | 29 | 1016.5 |
| 20260904190932 | 28 | 322 | 1.6 | 9.7 | 0.00 | 0.00 | 0.00 | 29 | 1016.5 |
| 20260904190011 | 29 | 15 | 1.6 | 16.1 | 0.00 | 0.00 | 0.00 | 28 | 1016.5 |
| 20260904185411 | 29 | 10 | 4.8 | 16.1 | 0.00 | 0.00 | 0.00 | 29 | 1016.5 |
| 20260904184511 | 29 | 343 | 1.6 | 8.0 | 0.00 | 0.00 | 0.00 | 29 | 1016.5 |
| 20260904183611 | 30 | 3 | 1.6 | 8.0 | 0.00 | 0.00 | 0.00 | 27 | 1016.5 |
| 20260904182711 | 30 | 360 | 1.6 | 8.0 | 0.00 | 0.00 | 0.00 | 26 | 1016.5 |
| 20260904181811 | 30 | 351 | 3.2 | 11.3 | 0.00 | 0.00 | 0.00 | 27 | 1016.5 |
| 20260904180932 | 30 | 2 | 3.2 | 9.7 | 0.00 | 0.00 | 0.00 | 26 | 1016.5 |
| 20260904180011 | 30 | 267 | 3.2 | 16.1 | 0.00 | 0.00 | 0.00 | 27 | 1016.5 |
| 20260904175411 | 29 | 183 | 1.6 | 11.3 | 0.00 | 0.00 | 0.00 | 28 | 1016.5 |
| 20260904174532 | 28 | 180 | 0.0 | 6.4 | 0.00 | 0.00 | 0.00 | 29 | 1016.5 |
| 20260904173611 | 27 | 181 | 1.6 | 8.0 | 0.00 | 0.00 | 0.00 | 28 | 1016.5 |
| 20260904172711 | 28 | 185 | 6.4 | 16.1 | 0.00 | 0.00 | 0.00 | 28 | 1016.5 |
| 20260904171811 | 28 | 77 | 6.4 | 20.9 | 0.00 | 0.00 | 0.00 | 28 | 1016.5 |